Total_Precipitation_Accumulation
0.47 0.47 0.47 0.45 0.42 0.36 0.31 0.30 0.31 0.34 0.37 0.40 0.47 0.51 0.54 0.57 0.61 0.70 0.83 1.02 1.13 1.16 1.19 1.25 1.27 1.26 1.25 1.23 1.30 1.42 1.54 1.54 1.32 1.12 1.15 1.17 1.13 1.02 0.95 0.88 0.75 0.67 0.55
0.63 0.71 0.72 0.63 0.54 0.45 0.36 0.31 0.30 0.33 0.36 0.37 0.37 0.41 0.42 0.46 0.53 0.63 0.75 0.86 0.95 0.98 0.99 0.99 0.96 0.95 0.98 0.98 1.06 1.14 1.24 1.41 1.38 1.26 1.32 1.38 1.36 1.26 1.20 1.12 0.92 0.72 0.60
0.68 0.92 1.03 0.95 0.81 0.63 0.44 0.30 0.25 0.25 0.28 0.29 0.31 0.36 0.43 0.54 0.63 0.69 0.73 0.76 0.78 0.82 0.88 0.93 0.87 0.83 0.84 0.87 0.90 0.89 0.94 1.11 1.23 1.26 1.32 1.42 1.43 1.42 1.29 1.15 1.08 0.95 0.74
0.63 0.79 0.86 0.78 0.68 0.56 0.38 0.25 0.20 0.20 0.22 0.26 0.32 0.38 0.46 0.54 0.62 0.68 0.69 0.68 0.64 0.60 0.64 0.69 0.72 0.70 0.70 0.75 0.79 0.80 0.83 0.96 1.11 1.20 1.29 1.46 1.49 1.43 1.38 1.23 1.22 1.12 1.00
0.40 0.46 0.52 0.46 0.36 0.31 0.26 0.22 0.20 0.21 0.23 0.27 0.32 0.39 0.43 0.45 0.46 0.43 0.43 0.42 0.41 0.38 0.38 0.41 0.47 0.53 0.56 0.58 0.61 0.73 0.81 0.87 0.95 1.02 1.09 1.29 1.52 1.57 1.38 1.28 1.34 1.34 1.21
0.25 0.30 0.36 0.38 0.31 0.25 0.21 0.17 0.16 0.19 0.23 0.28 0.33 0.39 0.39 0.34 0.38 0.29 0.21 0.21 0.26 0.29 0.33 0.36 0.37 0.39 0.43 0.44 0.45 0.52 0.66 0.75 0.81 0.88 0.95 1.12 1.35 1.51 1.56 1.52 1.45 1.37 1.34
0.23 0.27 0.36 0.39 0.36 0.30 0.23 0.21 0.21 0.23 0.25 0.28 0.29 0.29 0.31 0.35 0.32 0.25 0.16 0.15 0.19 0.23 0.28 0.32 0.29 0.29 0.33 0.36 0.37 0.36 0.39 0.47 0.59 0.73 0.82 0.89 1.05 1.26 1.44 1.44 1.49 1.52 1.53
0.23 0.28 0.33 0.38 0.36 0.33 0.33 0.35 0.36 0.34 0.32 0.31 0.29 0.28 0.33 0.34 0.27 0.22 0.17 0.16 0.21 0.24 0.27 0.29 0.29 0.26 0.26 0.32 0.37 0.37 0.34 0.33 0.36 0.45 0.58 0.75 0.94 1.16 1.41 1.42 1.42 1.50 1.60
0.26 0.33 0.37 0.41 0.41 0.40 0.41 0.42 0.44 0.44 0.39 0.35 0.33 0.35 0.38 0.40 0.31 0.22 0.18 0.20 0.27 0.29 0.31 0.29 0.28 0.27 0.24 0.21 0.28 0.35 0.38 0.38 0.33 0.35 0.42 0.62 0.85 0.98 1.21 1.34 1.32 1.30 1.26
0.31 0.37 0.41 0.45 0.49 0.49 0.52 0.52 0.51 0.53 0.47 0.41 0.37 0.40 0.44 0.50 0.46 0.30 0.25 0.27 0.35 0.37 0.43 0.39 0.30 0.24 0.23 0.21 0.25 0.32 0.35 0.37 0.40 0.39 0.39 0.46 0.59 0.78 0.92 1.07 1.16 1.17 1.07
0.30 0.37 0.47 0.53 0.59 0.63 0.66 0.67 0.66 0.64 0.62 0.58 0.50 0.48 0.53 0.57 0.57 0.39 0.30 0.34 0.44 0.51 0.54 0.46 0.40 0.28 0.24 0.24 0.26 0.32 0.32 0.35 0.45 0.49 0.50 0.54 0.61 0.72 0.81 0.89 1.04 1.14 1.11
0.34 0.42 0.49 0.55 0.53 0.56 0.70 0.74 0.77 0.81 0.76 0.71 0.67 0.59 0.60 0.64 0.59 0.48 0.35 0.33 0.44 0.62 0.71 0.64 0.56 0.43 0.33 0.29 0.27 0.28 0.26 0.26 0.35 0.46 0.51 0.55 0.58 0.61 0.69 0.82 0.96 1.04 1.10
0.41 0.47 0.53 0.54 0.57 0.66 0.75 0.79 0.83 0.89 0.87 0.80 0.79 0.75 0.70 0.73 0.70 0.50 0.40 0.35 0.39 0.57 0.75 0.77 0.64 0.50 0.43 0.37 0.32 0.30 0.30 0.29 0.36 0.43 0.46 0.49 0.51 0.57 0.69 0.85 1.02 1.09 1.07
0.55 0.55 0.58 0.62 0.62 0.66 0.77 0.81 0.86 0.91 0.96 0.93 0.88 0.86 0.85 0.84 0.80 0.68 0.56 0.47 0.48 0.57 0.70 0.76 0.67 0.61 0.54 0.52 0.44 0.37 0.35 0.39 0.42 0.46 0.48 0.53 0.59 0.67 0.73 0.81 0.92 1.02 1.05
0.60 0.61 0.60 0.62 0.68 0.75 0.80 0.84 0.81 0.87 0.85 0.86 0.87 0.89 0.92 0.91 0.77 0.68 0.66 0.60 0.65 0.73 0.80 0.93 0.87 0.83 0.76 0.69 0.63 0.59 0.58 0.57 0.51 0.52 0.60 0.66 0.70 0.77 0.81 0.83 0.93 0.93 0.89
0.72 0.72 0.67 0.64 0.70 0.77 0.82 0.79 0.69 0.63 0.59 0.57 0.59 0.63 0.66 0.62 0.56 0.49 0.49 0.51 0.56 0.66 0.74 0.92 0.95 0.93 0.90 0.86 0.77 0.72 0.70 0.67 0.63 0.67 0.72 0.75 0.77 0.81 0.87 0.85 0.89 0.91 0.84
0.81 0.81 0.77 0.71 0.73 0.76 0.80 0.83 0.86 0.79 0.67 0.60 0.54 0.51 0.52 0.48 0.45 0.42 0.43 0.47 0.49 0.55 0.66 0.86 0.94 0.93 0.94 0.92 0.83 0.75 0.72 0.73 0.78 0.79 0.80 0.80 0.84 0.86 0.91 0.90 0.86 0.88 0.85
0.78 0.80 0.80 0.78 0.77 0.80 0.81 0.82 0.88 0.98 0.97 0.82 0.62 0.53 0.48 0.45 0.40 0.39 0.41 0.44 0.45 0.50 0.65 0.81 0.89 0.88 0.87 0.85 0.82 0.76 0.74 0.80 0.87 0.85 0.84 0.85 0.84 0.85 0.89 0.91 0.87 0.82 0.83
0.78 0.76 0.75 0.76 0.77 0.79 0.78 0.79 0.84 0.93 1.00 0.95 0.81 0.66 0.54 0.48 0.43 0.40 0.40 0.41 0.47 0.56 0.72 0.80 0.84 0.85 0.79 0.78 0.79 0.76 0.75 0.79 0.87 0.91 0.88 0.88 0.88 0.88 0.88 0.85 0.88 0.87 0.79
0.76 0.72 0.71 0.72 0.70 0.68 0.69 0.73 0.79 0.87 0.93 0.90 0.84 0.74 0.62 0.59 0.52 0.46 0.43 0.43 0.53 0.63 0.73 0.80 0.84 0.82 0.75 0.77 0.80 0.78 0.77 0.83 0.92 0.95 0.91 0.93 0.96 0.95 0.87 0.85 0.86 0.87 0.79
0.75 0.67 0.62 0.63 0.63 0.64 0.68 0.72 0.75 0.78 0.84 0.80 0.73 0.60 0.52 0.51 0.46 0.42 0.43 0.48 0.58 0.68 0.75 0.80 0.80 0.76 0.74 0.77 0.80 0.83 0.81 0.87 0.93 0.94 0.95 0.98 1.01 0.99 0.91 0.87 0.84 0.83 0.82
0.76 0.66 0.57 0.54 0.57 0.59 0.60 0.67 0.73 0.74 0.72 0.69 0.64 0.51 0.50 0.48 0.43 0.40 0.43 0.49 0.56 0.67 0.69 0.69 0.71 0.72 0.70 0.71 0.77 0.83 0.87 0.91 0.97 0.98 0.95 0.96 0.98 0.97 0.96 0.92 0.90 0.86 0.85
0.78 0.65 0.55 0.50 0.51 0.52 0.54 0.63 0.71 0.69 0.63 0.59 0.55 0.52 0.52 0.54 0.46 0.43 0.48 0.56 0.63 0.64 0.62 0.62 0.66 0.69 0.70 0.70 0.69 0.76 0.81 0.86 0.90 0.90 0.94 0.96 0.94 0.91 0.91 0.86 0.85 0.85 0.83
0.78 0.68 0.59 0.49 0.49 0.53 0.55 0.59 0.62 0.61 0.55 0.50 0.48 0.47 0.49 0.54 0.50 0.48 0.53 0.65 0.64 0.58 0.55 0.58 0.61 0.63 0.66 0.70 0.69 0.68 0.69 0.73 0.73 0.75 0.77 0.82 0.85 0.86 0.86 0.83 0.82 0.80 0.80
0.77 0.68 0.58 0.48 0.46 0.49 0.52 0.56 0.59 0.59 0.54 0.47 0.45 0.46 0.48 0.52 0.50 0.50 0.54 0.57 0.54 0.51 0.47 0.51 0.56 0.57 0.59 0.61 0.61 0.60 0.57 0.55 0.56 0.61 0.65 0.69 0.74 0.79 0.83 0.81 0.82 0.81 0.79
0.71 0.64 0.57 0.49 0.42 0.42 0.48 0.55 0.56 0.55 0.53 0.49 0.47 0.48 0.48 0.48 0.45 0.42 0.42 0.43 0.44 0.44 0.44 0.49 0.55 0.56 0.58 0.58 0.50 0.46 0.43 0.38 0.41 0.49 0.54 0.62 0.71 0.76 0.78 0.81 0.80 0.82 0.80